Location: Gniezno
(52.5278°N, 17.6011°E)
Time: 13:11:56
(UTC+01:00)

ISS - Visible Passes

Search period start: 21 November 2017 00:00
Search period end: 01 December 2017 00:00
Orbit: 402 x 407 km, 51.6° (Epoch: 21 November)

Date Brightness Start Highest point End Pass type
(mag) Time Alt. Az. Time Alt. Az. Time Alt. Az.
28 Nov -1.1 18:17:21 10° SSW 18:17:53 13° S 18:17:53 13° S visible
29 Nov -1.6 17:26:02 10° S 17:27:42 13° SE 17:27:47 13° SE visible
29 Nov -0.4 19:00:26 10° SW 19:00:27 10° SW 19:00:27 10° SW visible
30 Nov -2.1 18:08:20 10° SW 18:10:17 26° S 18:10:17 26° S visible
